Kezdőlap
METAR-TAF:

METAR-TAF

Repülőterek :

New Ulm Municipal Airport

New Ulm, Minnesota, Amerikai Egyesült Államok

földrajzi szélesség: 44-19N, földrajzi hosszúság: 094-30W, magasság: 308 m

Jelenlegi meteorológiai megfigyelések

A jelentés 25 perccel ezelõtt készült, 09:35 UTC
Szélcsend
Hőmérséklet 12°C
Páratartalom 58%
Légköri nyomás 1016 hPa
Látótávolság: 16.1 km
Derült ég

METAR: KULM 170935Z AUTO 00000KT 10SM CLR 12/04 A3001 RMK AO2

Idő: 05:00 (10:00 UTC)


TAF: hiányzik

Meteorológiai megfigyelések és előrejelzések több, mint 4000 repülőtéren (METAR és TAF jelentéseket).

A térképen piros és sárga pontok jelzik az elérhető meteorológiai állomásokat.

Mozgassa az egeret a pont fölött, hogy megjelenjen az állomás neve.

Azután kattintson az időjárási megfigyelések és előrejelzések megtekintéséhez.

A térkép megváltoztatása: kattintson a fekete keresztel jelölt zöld gombra ráközelítéshez, a vonallal jelölt zöld gombra távolításhoz, vagy a zöld nyilakra a szomszédos térképek eléréséhez.


METAR-TAF: